FW1214 Weather Reports


Display with metric or nautical units.
time (UTC)temp
F
wind
direction
speed
MPH
gust
MPH
rain 1hr
in
rain 24hr
in
rain mn
in
humidity
%
barometer
mb
20260504204534 84 78 0.0 8.0 0.00 0.00 0.00 27 1000.6
20260504203031 83 63 0.0 16.0 0.00 0.00 0.00 26 1000.9
20260504201530 83 124 0.0 8.0 0.00 0.00 0.00 27 1001.2
20260504200028 83 114 0.0 11.0 0.00 0.00 0.00 29 1001.4
20260504194526 83 75 0.0 3.0 0.00 0.00 0.00 30 1001.5
20260504193023 82 67 0.0 7.0 0.00 0.00 0.00 29 1001.8
20260504191525 82 32 0.0 8.0 0.00 0.00 0.00 30 1002.0
20260504190021 83 74 1.0 11.0 0.00 0.00 0.00 30 1002.3
20260504184523 82 81 0.0 0.0 0.00 0.00 0.00 32 1002.4
20260504183018 82 63 0.0 12.0 0.00 0.00 0.00 33 1002.3
20260504181516 83 29 0.0 4.0 0.00 0.00 0.00 31 1002.5
20260504180014 81 100 0.0 4.0 0.00 0.00 0.00 33 1002.5
20260504174513 81 75 0.0 5.0 0.00 0.00 0.00 34 1002.6
20260504173010 81 48 0.0 2.0 0.00 0.00 0.00 34 1002.6
20260504171509 80 349 0.0 1.0 0.00 0.00 0.00 38 1002.7
20260504081518 54 195 0.0 1.0 0.00 0.00 0.00 57 1002.9
20260504044548 58 79 0.0 0.0 0.00 0.00 0.00 66 1004.8
20260504043053 58 18 0.0 0.0 0.00 0.00 0.00 66 1004.9
20260504041548 59 7 0.0 0.0 0.00 0.00 0.00 63 1005.2
20260504040107 61 17 0.0 0.0 0.00 0.00 0.00 57 1005.3
20260504034547 65 4 0.0 0.0 0.00 0.00 0.00 47 1005.4
20260504033049 67 339 0.0 0.0 0.00 0.00 0.00 41 1005.5
20260504031555 67 145 0.0 0.0 0.00 0.00 0.00 41 1005.4
20260504030045 70 118 0.0 0.0 0.00 0.00 0.00 37 1005.2
20260504024545 72 12 0.0 0.0 0.00 0.00 0.00 33 1005.4
20260504023044 73 240 0.0 0.0 0.00 0.00 0.00 30 1005.2
20260504021543 69 328 0.0 0.0 0.00 0.00 0.00 35 1005.2
20260504020051 70 147 0.0 0.0 0.00 0.00 0.00 36 1004.9
20260504014543 71 152 0.0 0.0 0.00 0.00 0.00 33 1004.6
20260504013043 71 145 0.0 0.0 0.00 0.00 0.00 34 1004.5
20260504011541 72 139 0.0 0.0 0.00 0.00 0.00 36 1004.6
20260504010038 74 143 0.0 0.0 0.00 0.00 0.00 34 1004.7
20260504004536 78 125 0.0 0.0 0.00 0.00 0.00 28 1004.9
20260504003034 79 193 0.0 8.0 0.00 0.00 0.00 24 1005.0
20260504001538 79 138 0.0 1.0 0.00 0.00 0.00 23 1005.1
20260504000033 81 217 1.0 11.0 0.00 0.00 0.00 21 1005.2
20260503234544 82 147 3.0 12.0 0.00 0.00 0.00 21 1005.1
20260503233038 83 176 4.0 14.0 0.00 0.00 0.00 21 1005.1
20260503231533 83 140 3.0 10.0 0.00 0.00 0.00 22 1005.3
20260503230026 83 185 2.0 13.0 0.00 0.00 0.00 23 1005.5
20260503224525 82 175 6.0 17.0 0.00 0.00 0.00 21 1005.6
20260503223023 83 185 0.0 7.0 0.00 0.00 0.00 19 1005.9
20260503221527 84 168 1.0 5.0 0.00 0.00 0.00 19 1006.1
20260503220019 85 157 0.0 7.0 0.00 0.00 0.00 18 1006.4
20260503214517 85 197 1.0 9.0 0.00 0.00 0.00 18 1006.8
20260503213017 86 200 4.0 11.0 0.00 0.00 0.00 18 1006.8
20260503211513 85 206 1.0 7.0 0.00 0.00 0.00 20 1007.0
20260503210011 85 154 3.0 10.0 0.00 0.00 0.00 21 1007.5